Location: Ammerl�gen
(47.2167°N, 9.6000°E)
Time: 03:25:27
(UTC+00:00)

METEOR M2 - Visible Passes

Search period start: 29 November 2021 00:00
Search period end: 09 December 2021 00:00
Orbit: 819 x 827 km, 98.4° (Epoch: 28 November)

Date Brightness Start Highest point End Pass type
(mag) Time Alt. Az. Time Alt. Az. Time Alt. Az.
29 Nov ? 16:03:35 10° E 16:06:28 15° NE 16:09:21 10° NNE visible
29 Nov ? 17:40:26 10° SSE 17:45:49 82° ENE 17:51:14 10° NNW visible
29 Nov ? 19:23:32 10° WSW 19:26:38 15° W 19:29:46 10° NW visible
30 Nov ? 05:55:24 10° NE 05:59:55 27° E 06:04:24 10° SSE visible
30 Nov ? 17:20:41 10° SSE 17:25:56 57° ENE 17:31:13 10° N visible
30 Nov ? 19:02:19 10° SW 19:06:28 23° W 19:10:39 10° NW visible
01 Dec ? 05:36:05 10° NE 05:39:47 19° E 05:43:26 10° SE visible
01 Dec ? 17:01:09 10° SE 17:06:07 40° ENE 17:11:07 10° N visible
01 Dec ? 18:41:34 10° SSW 18:46:21 32° W 18:51:10 10° NNW visible
02 Dec ? 05:17:23 10° ENE 05:19:34 12° E 05:21:43 10° ESE visible
02 Dec ? 16:41:50 10° ESE 16:46:21 29° ENE 16:50:54 10° N visible
02 Dec ? 18:21:08 10° S 18:26:18 47° W 18:31:30 10° NNW visible
03 Dec ? 16:22:46 10° ESE 16:26:40 21° ENE 16:30:34 10° NNE visible
03 Dec ? 18:00:58 10° S 18:06:19 69° WSW 18:11:42 10° NNW visible
04 Dec ? 06:15:32 10° NNE 06:20:34 40° E 06:25:34 10° SSE visible
04 Dec ? 16:04:04 10° E 16:07:00 15° NE 16:09:57 10° NNE visible
04 Dec ? 17:41:00 10° SSE 17:46:22 83° ENE 17:51:47 10° NNW visible
04 Dec ? 19:24:13 10° WSW 19:27:14 15° W 19:30:15 10° NW visible
05 Dec ? 05:55:57 10° NE 06:00:30 27° E 06:05:00 10° SSE visible
05 Dec ? 17:21:14 10° SSE 17:26:30 58° ENE 17:31:47 10° N visible
05 Dec ? 19:02:56 10° SW 19:07:02 22° W 19:11:11 10° NW visible
06 Dec ? 05:36:36 10° NE 05:40:21 19° E 05:44:04 10° SE visible
06 Dec ? 17:01:41 10° SE 17:06:41 41° ENE 17:11:41 10° N visible
06 Dec ? 18:42:10 10° SSW 18:46:56 32° W 18:51:43 10° NNW visible
07 Dec ? 05:17:51 10° ENE 05:20:08 13° E 05:22:26 10° ESE visible
07 Dec ? 16:42:21 10° ESE 16:46:55 29° ENE 16:51:29 10° N visible
07 Dec ? 18:21:44 10° S 18:26:52 46° W 18:32:04 10° NNW visible
08 Dec ? 16:23:17 10° ESE 16:27:13 21° ENE 16:31:09 10° NNE visible
08 Dec ? 18:01:32 10° S 18:06:53 67° WSW 18:12:16 10° NNW visible
